Voltar ao catálogo

COSMOS 2412

GLONASS

AtivoNavegaçãoMEO
NORAD 28510·PAYLOAD·🇷🇺 Russia

Lançado Dec 26, 2004 de Baikonur Cosmodrome

Loading…

Próximas Passagens (próximas 24 horas)

TLE

AtualizadoSource: Space-Track

Época: Sep 14, 2026, 02:48 UTC

1 28510U 04053C   26257.11708360 -.00000030  00000-0  00000-0 0  9990
2 28510  64.2812  57.1903 0006241 235.9792 301.1144  2.13103174169019

Acompanhe COSMOS 2412 em tempo real com AllMySat

Download on the App Store